Time,TemperatureF,DewpointF,PressureIn,WindDirection,WindDirectionDegrees,WindSpeedMPH,WindSpeedGustMPH,Humidity,HourlyPrecipIn,Conditions,Clouds,dailyrainin,SoftwareType,DateUTC
2013-01-21 15:09:00,54.6,15.4,30.25,North,360,0.0,2.0,21,0.00,,,0.00,Wunderground v.1.15,2013-01-21 22:09:00,
2013-01-21 15:15:00,54.4,15.2,30.25,NNW,334,1.0,4.0,21,0.00,,,0.00,Wunderground v.1.15,2013-01-21 22:15:00,
2013-01-21 15:25:00,54.7,15.5,30.25,NNE,13,1.0,1.0,21,0.00,,,0.00,Wunderground v.1.15,2013-01-21 22:25:00,
2013-01-21 15:30:00,54.2,15.1,30.25,NW,323,1.0,4.0,21,0.00,,,0.00,Wunderground v.1.15,2013-01-21 22:30:00,
2013-01-21 15:35:00,54.1,15.0,30.25,NNW,341,2.0,4.0,21,0.00,,,0.00,Wunderground v.1.15,2013-01-21 22:35:00,
2013-01-21 15:40:00,53.8,14.7,30.24,NW,323,2.0,2.0,21,0.00,,,0.00,Wunderground v.1.15,2013-01-21 22:40:00,
2013-01-21 15:50:00,53.7,14.6,30.24,NW,307,1.0,1.0,21,0.00,,,0.00,Wunderground v.1.15,2013-01-21 22:50:00,
2013-01-21 16:00:00,53.7,14.6,30.24,NNE,19,0.0,0.0,21,0.00,,,0.00,Wunderground v.1.15,2013-01-21 23:00:00,
2013-01-21 16:05:00,53.6,15.6,30.24,NNW,338,1.0,1.0,22,0.00,,,0.00,Wunderground v.1.15,2013-01-21 23:05:00,
2013-01-21 16:15:00,53.3,15.4,30.24,NNW,338,1.0,5.0,22,0.00,,,0.00,Wunderground v.1.15,2013-01-21 23:15:00,
2013-01-21 16:20:00,53.3,14.3,30.24,NNW,338,1.0,2.0,21,0.00,,,0.00,Wunderground v.1.15,2013-01-21 23:20:00,
2013-01-21 16:30:00,53.1,14.1,30.24,NW,319,1.0,6.0,21,0.00,,,0.00,Wunderground v.1.15,2013-01-21 23:30:00,
2013-01-21 16:35:00,52.9,14.0,30.24,NNW,348,2.0,6.0,21,0.00,,,0.00,Wunderground v.1.15,2013-01-21 23:35:00,
2013-01-21 16:45:00,52.2,14.4,30.24,North,355,2.0,2.0,22,0.00,,,0.00,Wunderground v.1.15,2013-01-21 23:45:00,
2013-01-21 16:50:00,51.9,14.2,30.24,North,5,2.0,3.0,22,0.00,,,0.00,Wunderground v.1.15,2013-01-21 23:50:00,
2013-01-21 16:55:00,51.7,14.0,30.24,NNW,342,3.0,3.0,22,0.00,,,0.00,Wunderground v.1.15,2013-01-21 23:55:00,
2013-01-21 17:05:00,50.9,13.3,30.24,NNW,329,2.0,3.0,22,0.00,,,0.00,Wunderground v.1.15,2013-01-22 00:05:00,
2013-01-21 17:15:00,50.5,13.0,30.24,NW,323,4.0,4.0,22,0.00,,,0.00,Wunderground v.1.15,2013-01-22 00:15:00,
2013-01-21 17:20:00,50.0,12.6,30.24,NNW,348,2.0,2.0,22,0.00,,,0.00,Wunderground v.1.15,2013-01-22 00:20:00,
2013-01-21 17:25:00,49.5,12.2,30.24,NNW,348,1.0,2.0,22,0.00,,,0.00,Wunderground v.1.15,2013-01-22 00:25:00,
2013-01-21 17:35:00,48.4,12.2,30.25,North,351,0.0,0.0,23,0.00,,,0.00,Wunderground v.1.15,2013-01-22 00:35:00,
2013-01-21 17:45:00,47.3,12.3,30.25,North,355,0.0,0.0,24,0.00,,,0.00,Wunderground v.1.15,2013-01-22 00:45:00,
2013-01-21 17:50:00,46.5,11.6,30.25,North,355,0.0,0.0,24,0.00,,,0.00,Wunderground v.1.15,2013-01-22 00:50:00,
2013-01-21 17:55:00,46.0,12.1,30.25,North,355,0.0,1.0,25,0.00,,,0.00,Wunderground v.1.15,2013-01-22 00:55:00,
2013-01-21 18:00:00,45.7,11.8,30.25,North,355,1.0,1.0,25,0.00,,,0.00,Wunderground v.1.15,2013-01-22 01:00:00,
2013-01-21 18:05:00,45.1,12.2,30.25,North,355,1.0,1.0,26,0.00,,,0.00,Wunderground v.1.15,2013-01-22 01:05:00,
2013-01-21 18:15:00,43.2,12.2,30.26,North,355,0.0,0.0,28,0.00,,,0.00,Wunderground v.1.15,2013-01-22 01:15:00,
2013-01-21 18:20:00,42.2,13.7,30.26,North,355,0.0,0.0,31,0.00,,,0.00,Wunderground v.1.15,2013-01-22 01:20:00,
2013-01-21 18:25:00,41.5,14.5,30.26,NE,46,0.0,1.0,33,0.00,,,0.00,Wunderground v.1.15,2013-01-22 01:25:00,
2013-01-21 18:35:00,42.6,15.5,30.27,East,97,0.0,0.0,33,0.00,,,0.00,Wunderground v.1.15,2013-01-22 01:35:00,
2013-01-21 18:40:00,42.8,15.6,30.26,ESE,114,0.0,1.0,33,0.00,,,0.00,Wunderground v.1.15,2013-01-22 01:40:00,
2013-01-21 18:45:00,42.9,14.3,30.27,East,79,0.0,1.0,31,0.00,,,0.00,Wunderground v.1.15,2013-01-22 01:45:00,
2013-01-21 18:50:00,42.5,13.2,30.27,ENE,69,0.0,0.0,30,0.00,,,0.00,Wunderground v.1.15,2013-01-22 01:50:00,
2013-01-21 18:55:00,41.9,12.7,30.28,ENE,69,0.0,0.0,30,0.00,,,0.00,Wunderground v.1.15,2013-01-22 01:55:00,
2013-01-21 19:00:00,41.8,12.6,30.28,ENE,69,0.0,0.0,30,0.00,,,0.00,Wunderground v.1.15,2013-01-22 02:00:00,
2013-01-21 19:05:00,41.1,12.7,30.28,ENE,69,0.0,0.0,31,0.00,,,0.00,Wunderground v.1.15,2013-01-22 02:05:00,
2013-01-21 19:15:00,39.9,12.4,30.28,ENE,69,0.0,0.0,32,0.00,,,0.00,Wunderground v.1.15,2013-01-22 02:15:00,
2013-01-21 19:20:00,39.6,12.1,30.28,ENE,69,0.0,0.0,32,0.00,,,0.00,Wunderground v.1.15,2013-01-22 02:20:00,
2013-01-21 19:30:00,40.8,12.5,30.28,NNW,338,0.0,0.0,31,0.00,,,0.00,Wunderground v.1.15,2013-01-22 02:30:00,
2013-01-21 19:35:00,40.6,12.3,30.28,NNW,338,0.0,0.0,31,0.00,,,0.00,Wunderground v.1.15,2013-01-22 02:35:00,
2013-01-21 19:40:00,40.1,13.3,30.29,NNW,338,0.0,0.0,33,0.00,,,0.00,Wunderground v.1.15,2013-01-22 02:40:00,
2013-01-21 19:45:00,39.5,13.4,30.29,NNW,338,0.0,0.0,34,0.00,,,0.00,Wunderground v.1.15,2013-01-22 02:45:00,
2013-01-21 19:55:00,39.4,13.3,30.29,NNW,338,0.0,0.0,34,0.00,,,0.00,Wunderground v.1.15,2013-01-22 02:55:00,
2013-01-21 20:00:00,38.9,14.2,30.29,NNW,338,0.0,0.0,36,0.00,,,0.00,Wunderground v.1.15,2013-01-22 03:00:00,
2013-01-21 20:05:00,38.4,14.4,30.29,NNW,338,0.0,0.0,37,0.00,,,0.00,Wunderground v.1.15,2013-01-22 03:05:00,
2013-01-21 20:14:00,38.1,14.7,30.30,NNW,339,0.0,0.0,38,0.00,,,0.00,Wunderground v.1.15,2013-01-22 03:14:00,
2013-01-21 20:20:00,38.4,15.6,30.30,NNW,339,0.0,1.0,39,0.00,,,0.00,Wunderground v.1.15,2013-01-22 03:20:00,
2013-01-21 20:30:00,39.5,17.1,30.30,North,351,1.0,1.0,40,0.00,,,0.00,Wunderground v.1.15,2013-01-22 03:30:00,
2013-01-21 20:35:00,39.6,17.2,30.30,North,355,1.0,1.0,40,0.00,,,0.00,Wunderground v.1.15,2013-01-22 03:35:00,
2013-01-21 20:40:00,40.0,18.2,30.30,North,355,1.0,1.0,41,0.00,,,0.00,Wunderground v.1.15,2013-01-22 03:40:00,
2013-01-21 20:45:00,40.1,17.7,30.30,North,360,1.0,1.0,40,0.00,,,0.00,Wunderground v.1.15,2013-01-22 03:45:00,
2013-01-21 20:50:00,39.6,17.8,30.30,North,360,0.0,0.0,41,0.00,,,0.00,Wunderground v.1.15,2013-01-22 03:50:00,
2013-01-21 20:55:00,39.3,18.1,30.30,North,360,0.0,0.0,42,0.00,,,0.00,Wunderground v.1.15,2013-01-22 03:55:00,
2013-01-21 21:05:00,38.6,18.0,30.30,North,355,0.0,0.0,43,0.00,,,0.00,Wunderground v.1.15,2013-01-22 04:05:00,
2013-01-21 21:15:00,38.5,17.9,30.30,North,355,0.0,0.0,43,0.00,,,0.00,Wunderground v.1.15,2013-01-22 04:15:00,
2013-01-21 21:20:00,37.7,17.7,30.30,North,355,0.0,1.0,44,0.00,,,0.00,Wunderground v.1.15,2013-01-22 04:20:00,
2013-01-21 21:25:00,38.0,18.5,30.30,NW,306,1.0,1.0,45,0.00,,,0.00,Wunderground v.1.15,2013-01-22 04:25:00,
2013-01-21 21:30:00,38.7,19.2,30.31,NNW,344,1.0,1.0,45,0.00,,,0.00,Wunderground v.1.15,2013-01-22 04:30:00,
2013-01-21 21:35:00,38.9,18.8,30.30,NNW,329,1.0,1.0,44,0.00,,,0.00,Wunderground v.1.15,2013-01-22 04:35:00,
2013-01-21 21:40:00,38.4,18.4,30.31,NNW,329,0.0,0.0,44,0.00,,,0.00,Wunderground v.1.15,2013-01-22 04:40:00,
2013-01-21 21:45:00,37.4,18.0,30.31,NNW,329,0.0,0.0,45,0.00,,,0.00,Wunderground v.1.15,2013-01-22 04:45:00,
2013-01-21 21:50:00,36.5,17.7,30.31,NNW,329,0.0,0.0,46,0.00,,,0.00,Wunderground v.1.15,2013-01-22 04:50:00,
2013-01-21 22:00:00,35.1,17.8,30.32,NNW,329,0.0,0.0,49,0.00,,,0.00,Wunderground v.1.15,2013-01-22 05:00:00,
2013-01-21 22:05:00,34.6,17.4,30.32,NNW,329,0.0,0.0,49,0.00,,,0.00,Wunderground v.1.15,2013-01-22 05:05:00,
2013-01-21 22:10:00,33.9,17.2,30.32,NNW,329,0.0,0.0,50,0.00,,,0.00,Wunderground v.1.15,2013-01-22 05:10:00,
2013-01-21 22:15:00,33.2,17.0,30.32,NNW,329,0.0,0.0,51,0.00,,,0.00,Wunderground v.1.15,2013-01-22 05:15:00,
2013-01-21 22:20:00,32.8,17.1,30.33,NNW,329,0.0,0.0,52,0.00,,,0.00,Wunderground v.1.15,2013-01-22 05:20:00,
2013-01-21 22:25:00,32.6,17.3,30.33,NNW,329,0.0,0.0,53,0.00,,,0.00,Wunderground v.1.15,2013-01-22 05:25:00,
2013-01-21 22:30:00,32.4,16.7,30.33,NNW,329,0.0,0.0,52,0.00,,,0.00,Wunderground v.1.15,2013-01-22 05:30:00,
2013-01-21 22:35:00,31.9,16.2,30.33,NNW,329,0.0,0.0,52,0.00,,,0.00,Wunderground v.1.15,2013-01-22 05:35:00,
2013-01-21 22:40:00,31.3,16.6,30.33,NNW,329,0.0,0.0,54,0.00,,,0.00,Wunderground v.1.15,2013-01-22 05:40:00,
2013-01-21 22:45:00,31.1,16.8,30.33,NNW,329,0.0,0.0,55,0.00,,,0.00,Wunderground v.1.15,2013-01-22 05:45:00,
2013-01-21 22:50:00,31.1,16.8,30.33,NNW,329,0.0,0.0,55,0.00,,,0.00,Wunderground v.1.15,2013-01-22 05:50:00,
2013-01-21 22:55:00,30.8,16.5,30.33,NNW,329,0.0,0.0,55,0.00,,,0.00,Wunderground v.1.15,2013-01-22 05:55:00,
2013-01-21 23:00:00,30.5,16.7,30.33,NNW,329,0.0,0.0,56,0.00,,,0.00,Wunderground v.1.15,2013-01-22 06:00:00,
2013-01-21 23:10:00,29.6,15.8,30.33,NNW,329,0.0,0.0,56,0.00,,,0.00,Wunderground v.1.15,2013-01-22 06:10:00,
2013-01-21 23:15:00,29.4,16.0,30.33,NNW,329,0.0,0.0,57,0.00,,,0.00,Wunderground v.1.15,2013-01-22 06:15:00,
2013-01-21 23:20:00,29.6,16.6,30.34,NNW,329,0.0,0.0,58,0.00,,,0.00,Wunderground v.1.15,2013-01-22 06:20:00,
2013-01-21 23:25:00,29.7,16.3,30.33,NNW,329,0.0,0.0,57,0.00,,,0.00,Wunderground v.1.15,2013-01-22 06:25:00,
2013-01-21 23:30:00,29.8,16.0,30.34,NNW,329,0.0,0.0,56,0.00,,,0.00,Wunderground v.1.15,2013-01-22 06:30:00,
2013-01-21 23:35:00,29.8,16.4,30.33,NNW,329,0.0,0.0,57,0.00,,,0.00,Wunderground v.1.15,2013-01-22 06:35:00,
2013-01-21 23:40:00,29.8,16.0,30.33,NNW,329,0.0,0.0,56,0.00,,,0.00,Wunderground v.1.15,2013-01-22 06:40:00,
2013-01-21 23:45:00,29.8,18.0,30.33,NNW,329,0.0,0.0,61,0.00,,,0.00,Wunderground v.1.15,2013-01-22 06:45:00,
2013-01-21 23:50:00,29.5,16.5,30.33,NNW,329,0.0,0.0,58,0.00,,,0.00,Wunderground v.1.15,2013-01-22 06:50:00,